Location: Beekmeers
(50.8953°N, 3.6968°E)
Time: 13:41:26
(UTC+00:00)

PSLV R/B - Pass Details

Date: 23 May 2024
Orbit: 591 x 691 km, 97.9° (Epoch: 18 June)

Event Time Altitude Azimuth Distance (km) Brightness Sun altitude
Rises 00:18:02 0° 9° (N) 3,032 8.9 -18.0°
Reaches altitude 10° 00:20:22 10° 3° (N) 2,099 7.5 -18.0°
Maximum altitude 00:24:41 43° 293° (WNW) 923 4.5 -17.8°
Enters shadow 00:26:52 25° 237° (WSW) 1,314 4.8 -17.8°
